Location: Beekmeers
(50.8953°N, 3.6968°E)
Time: 23:44:51
(UTC+00:00)

H-2A R/B - Pass Details

Date: 12 August 2024
Orbit: 566 x 633 km, 98.4° (Epoch: 07 September)

Event Time Altitude Azimuth Distance (km) Brightness Sun altitude
Rises 01:49:18 0° 1° (N) 2,843 6.5 -19.3°
Reaches altitude 10° 01:52:15 10° 338° (NNW) 1,951 5.1 -19.0°
Maximum altitude 01:54:38 15° 303° (WNW) 1,659 4.3 -18.9°
Enters shadow 01:56:13 13° 279° (W) 1,803 4.2 -18.7°
